Date String (YYYY-MM-DD hh:mm:ss) UTC,Instrument flags,absolute air pressure of the measurement (hPa),sample flow rate (lpm),inlet stack bypass flow (lpm),air temperature of the measurement (°C),ambient temperature measured by the external sensor (°C),aerosol sample conditioner tube jacket temperature (°C),OPC LED temperature (°C),internal box temperature (°C),relative humidity of the measurement (%),span deviation,mass concentration of particles derived from Lorenz-Mie calculation of OPC scattering (μg/m³),mass concentration of particles derived from Lorenz-Mie calculation of OPC scattering (μg/m³),mass concentration of particles derived from Lorenz-Mie calculation of OPC scattering (μg/m³)
DateTimeUTC,F1_M11,P_M11,Q1_M11,Q2_M11,T1_M11,T2_M11,T3_M11,T4_M11,T5_M11,U1_M11,ZSPAN_M11,X0_M11,X2_M11,X1_M11
2023-10-05 12:00:00,SystemResetWarning,0836.3,4.99,000.00,029.0,027.5,000.0,037.5,030.7,13.3,0000.0,0009.85,0003.49,0002.82
2023-10-05 12:01:00,SystemResetWarning,0836.3,5.00,000.00,029.0,027.5,000.0,037.5,030.7,13.3,0000.0,0009.78,0003.46,0002.84
2023-10-05 12:02:00,SystemResetWarning,0836.4,5.00,000.00,029.0,027.5,000.0,037.5,030.7,13.3,0000.0,0010.32,0003.52,0002.88
2023-10-05 12:03:00,SystemResetWarning,0836.4,5.00,000.00,029.0,027.6,000.0,037.5,030.7,13.4,0000.0,0010.41,0003.56,0002.88
2023-10-05 12:04:00,SystemResetWarning,0836.4,5.00,000.00,029.0,027.6,000.0,037.5,030.7,13.5,0000.0,0010.79,0003.58,0002.88
2023-10-05 12:05:00,SystemResetWarning,0836.4,5.00,000.00,029.0,027.6,000.0,037.4,030.7,13.5,0000.0,0010.54,0003.57,0002.88
2023-10-05 12:06:00,SystemResetWarning,0836.4,5.00,000.00,029.0,027.6,000.0,037.4,030.7,13.5,0000.0,0010.56,0003.58,0002.86
2023-10-05 12:07:00,SystemResetWarning,0836.4,5.01,000.00,029.0,027.6,000.0,037.4,030.7,13.4,0000.0,0010.55,0003.60,0002.83
2023-10-05 12:08:00,SystemResetWarning,0836.4,5.01,000.00,029.0,027.5,000.0,037.4,030.6,13.4,0000.0,0010.33,0003.58,0002.80
2023-10-05 12:09:00,SystemResetWarning,0836.4,5.00,000.00,029.0,027.5,000.0,037.5,030.6,13.4,0000.0,0010.74,0003.52,0002.75
2023-10-05 12:10:00,SystemResetWarning,0836.5,5.00,000.00,029.0,027.5,000.0,037.5,030.6,13.4,0000.0,0010.83,0003.44,0002.66
2023-10-05 12:11:00,SystemResetWarning,0836.5,4.99,000.00,029.0,027.5,000.0,037.5,030.6,13.4,0000.0,0010.98,0003.39,0002.60
2023-10-05 12:12:00,SystemResetWarning,0836.5,4.99,000.00,029.0,027.5,000.0,037.5,030.6,13.4,0000.0,0011.19,0003.36,0002.52
2023-10-05 12:13:00,SystemResetWarning,0836.5,4.99,000.00,029.0,027.4,000.0,037.5,030.6,13.4,0000.0,0010.75,0003.26,0002.44
2023-10-05 12:14:00,SystemResetWarning,0836.5,5.00,000.00,029.0,027.4,000.0,037.4,030.6,13.4,0000.0,0010.04,0003.18,0002.37
2023-10-05 12:15:00,SystemResetWarning,0836.5,5.00,000.00,029.0,027.4,000.0,037.4,030.6,13.4,0000.0,0008.48,0003.06,0002.29
2023-10-05 12:16:00,SystemResetWarning,0836.5,5.00,000.00,029.0,027.4,000.0,037.4,030.5,13.4,0000.0,0007.96,0002.92,0002.19
2023-10-05 12:17:00,SystemResetWarning,0836.6,5.00,000.00,029.0,027.4,000.0,037.4,030.5,13.4,0000.0,0007.77,0002.77,0002.11
2023-10-05 12:18:00,SystemResetWarning,0836.6,5.01,000.00,028.9,027.3,000.0,037.4,030.5,13.4,0000.0,0007.66,0002.60,0002.05
2023-10-05 12:19:00,SystemResetWarning,0836.6,5.01,000.00,028.9,027.3,000.0,037.4,030.5,13.4,0000.0,0007.60,0002.52,0002.00
2023-10-05 12:20:00,SystemResetWarning,0836.6,5.00,000.00,028.9,027.3,000.0,037.4,030.5,13.4,0000.0,0006.69,0002.42,0001.92
2023-10-05 12:21:00,SystemResetWarning,0836.7,5.00,000.00,028.9,027.3,000.0,037.4,030.6,13.6,0000.0,0006.53,0002.33,0001.85
2023-10-05 12:22:00,SystemResetWarning,0836.8,5.00,000.00,028.9,027.4,000.0,037.4,030.6,13.7,0000.0,0005.43,0002.28,0001.79
2023-10-05 12:23:00,SystemResetWarning,0836.7,5.00,000.00,029.0,027.4,000.0,037.4,030.6,13.7,0000.0,0004.77,0002.14,0001.73
2023-10-05 12:24:00,SystemResetWarning,0836.8,5.00,000.00,029.0,027.4,000.0,037.4,030.6,13.7,0000.0,0004.33,0002.08,0001.68
2023-10-05 12:25:00,SystemResetWarning,0836.8,4.99,000.00,029.0,027.4,000.0,037.4,030.6,13.7,0000.0,0005.21,0002.02,0001.63
2023-10-05 12:26:00,SystemResetWarning,0836.7,5.00,000.00,029.0,027.4,000.0,037.4,030.6,13.7,0000.0,0006.89,0001.96,0001.60
2023-10-05 12:27:00,SystemResetWarning,0836.7,5.01,000.00,028.9,027.4,000.0,037.4,030.6,13.6,0000.0,0006.96,0001.98,0001.59
2023-10-05 12:28:00,SystemResetWarning,0836.6,5.01,000.00,028.9,027.4,000.0,037.4,030.6,13.6,0000.0,0007.06,0002.03,0001.61
2023-10-05 12:29:00,SystemResetWarning,0836.7,5.01,000.00,028.9,027.4,000.0,037.4,030.6,13.5,0000.0,0007.04,0002.07,0001.61
2023-10-05 12:30:00,SystemResetWarning,0836.7,5.00,000.00,028.9,027.4,000.0,037.4,030.6,13.5,0000.0,0006.92,0002.02,0001.60
2023-10-05 12:31:00,SystemResetWarning,0836.7,5.00,000.00,028.9,027.4,000.0,037.4,030.6,13.5,0000.0,0007.11,0002.08,0001.61
2023-10-05 12:32:00,SystemResetWarning,0836.7,4.99,000.00,029.0,027.4,000.0,037.4,030.6,13.5,0000.0,0007.50,0002.12,0001.61
2023-10-05 12:33:00,SystemResetWarning,0836.7,4.99,000.00,028.9,027.4,000.0,037.4,030.6,13.5,0000.0,0007.78,0002.14,0001.62
2023-10-05 12:34:00,SystemResetWarning,0836.7,5.00,000.00,029.0,027.4,000.0,037.4,030.6,13.5,0000.0,0007.81,0002.20,0001.64
2023-10-05 12:35:00,SystemResetWarning,0836.7,5.00,000.00,029.0,027.4,000.0,037.4,030.6,13.5,0000.0,0007.68,0002.24,0001.65
2023-10-05 12:36:00,SystemResetWarning,0836.7,5.00,000.00,029.0,027.4,000.0,037.4,030.6,13.5,0000.0,0007.10,0002.26,0001.67
2023-10-05 12:37:00,SystemResetWarning,0836.7,5.00,000.00,029.0,027.5,000.0,037.4,030.6,13.5,0000.0,0005.64,0002.26,0001.68
2023-10-05 12:38:00,SystemResetWarning,0836.7,5.01,000.00,029.0,027.5,000.0,037.4,030.6,13.4,0000.0,0006.92,0002.24,0001.71
2023-10-05 12:39:00,SystemResetWarning,0836.8,5.00,000.00,029.0,027.5,000.0,037.4,030.6,13.4,0000.0,0007.35,0002.22,0001.71
2023-10-05 12:40:00,SystemResetWarning,0836.8,5.01,000.00,029.0,027.5,000.0,037.4,030.6,13.4,0000.0,0007.51,0002.17,0001.70
2023-10-05 12:41:00,SystemResetWarning,0836.8,5.01,000.00,029.0,027.5,000.0,037.4,030.6,13.4,0000.0,0007.54,0002.23,0001.73
2023-10-05 12:42:00,SystemResetWarning,0836.8,5.00,000.00,029.0,027.5,000.0,037.4,030.6,13.4,0000.0,0007.63,0002.29,0001.77
2023-10-05 12:43:00,SystemResetWarning,0836.8,5.00,000.00,029.0,027.5,000.0,037.4,030.6,13.4,0000.0,0007.31,0002.31,0001.81
2023-10-05 12:44:00,SystemResetWarning,0836.8,5.00,000.00,029.0,027.5,000.0,037.4,030.6,13.4,0000.0,0007.52,0002.34,0001.82
2023-10-05 12:45:00,SystemResetWarning,0836.7,5.00,000.00,029.0,027.5,000.0,037.4,030.6,13.4,0000.0,0007.68,0002.34,0001.82
2023-10-05 12:46:00,SystemResetWarning,0836.8,5.00,000.00,029.0,027.5,000.0,037.4,030.6,13.4,0000.0,0007.75,0002.32,0001.83
2023-10-05 12:47:00,SystemResetWarning,0836.8,5.00,000.00,029.0,027.5,000.0,037.4,030.6,13.4,0000.0,0008.08,0002.35,0001.84
2023-10-05 12:48:00,SystemResetWarning,0836.9,4.99,000.00,029.0,027.5,000.0,037.4,030.6,13.4,0000.0,0008.06,0002.37,0001.84
2023-10-05 12:49:00,SystemResetWarning,0836.9,5.00,000.00,029.0,027.5,000.0,037.4,030.6,13.4,0000.0,0007.15,0002.42,0001.83
2023-10-05 12:50:00,SystemResetWarning,0837.0,5.01,000.00,029.0,027.4,000.0,037.4,030.6,13.4,0000.0,0006.98,0002.48,0001.85
2023-10-05 12:51:00,SystemResetWarning,0837.0,5.01,000.00,029.0,027.4,000.0,037.4,030.6,13.4,0000.0,0007.01,0002.53,0001.85
2023-10-05 12:52:00,SystemResetWarning,0836.9,5.00,000.00,029.0,027.4,000.0,037.4,030.6,13.4,0000.0,0007.65,0002.57,0001.86
2023-10-05 12:53:00,SystemResetWarning,0836.9,5.00,000.00,029.0,027.4,000.0,037.4,030.6,13.4,0000.0,0007.53,0002.51,0001.83
2023-10-05 12:54:00,SystemResetWarning,0836.9,5.01,000.00,028.9,027.4,000.0,037.4,030.6,13.4,0000.0,0007.44,0002.48,0001.82
2023-10-05 12:55:00,SystemResetWarning,0836.9,5.00,000.00,028.9,027.4,000.0,037.4,030.6,13.4,0000.0,0007.35,0002.46,0001.83
2023-10-05 12:56:00,SystemResetWarning,0836.9,5.00,000.00,028.9,027.4,000.0,037.4,030.6,13.4,0000.0,0007.28,0002.45,0001.84
2023-10-05 12:57:00,SystemResetWarning,0836.9,4.99,000.00,028.9,027.4,000.0,037.4,030.6,13.4,0000.0,0007.63,0002.48,0001.85
2023-10-05 12:58:00,SystemResetWarning,0836.9,4.99,000.00,029.0,027.4,000.0,037.4,030.6,13.4,0000.0,0007.44,0002.56,0001.89
2023-10-05 12:59:00,SystemResetWarning,0836.9,5.00,000.00,028.9,027.4,000.0,037.4,030.6,13.4,0000.0,0007.64,0002.67,0001.95
